FW4679 Weather Reports


Display with metric or nautical units.
time (UTC)temp
F
wind
direction
speed
MPH
gust
MPH
rain 1hr
in
rain 24hr
in
rain mn
in
humidity
%
barometer
mb
20260905110048 58 262 2.0 3.0 0.00 0.02 0.01 90 1017.1
20260905104554 58 262 1.0 3.0 0.00 0.02 0.01 90 1016.9
20260905103051 59 262 2.0 3.0 0.00 0.02 0.01 90 1016.6
20260905101546 58 262 0.0 2.0 0.00 0.02 0.01 90 1016.4
20260905100052 58 262 1.0 4.0 0.00 0.02 0.01 89 1016.2
20260905094545 59 269 0.0 2.0 0.00 0.02 0.01 89 1016.3
20260905093042 59 269 0.0 2.0 0.00 0.02 0.01 89 1016.2
20260905091544 59 269 1.0 2.0 0.00 0.02 0.01 89 1016.2
20260905084541 60 5 1.0 3.0 0.00 0.02 0.01 89 1016.2
20260905083046 60 5 0.0 2.0 0.00 0.02 0.01 89 1016.2
20260905081546 60 5 2.0 4.0 0.00 0.02 0.01 88 1016.4
20260905080044 60 5 0.0 3.0 0.00 0.02 0.01 88 1016.3
20260905074533 61 5 2.0 3.0 0.01 0.03 0.01 88 1016.5
20260905073036 61 5 1.0 3.0 0.01 0.03 0.01 88 1016.4
20260905071530 61 5 1.0 2.0 0.01 0.03 0.01 88 1016.5
20260905070031 62 5 1.0 2.0 0.01 0.03 0.01 88 1016.6
20260905064527 62 5 1.0 3.0 0.00 0.02 0.00 88 1016.7
20260905063025 63 5 0.0 2.0 0.00 0.02 0.00 88 1016.8
20260905061523 62 5 1.0 3.0 0.00 0.02 0.00 87 1016.8
20260905060030 62 5 1.0 3.0 0.00 0.02 0.00 87 1016.9
20260905054533 63 5 1.0 2.0 0.00 0.02 0.00 87 1016.9
20260905053021 63 5 1.0 3.0 0.00 0.02 0.00 86 1017.0
20260905051525 64 5 1.0 3.0 0.00 0.02 0.00 85 1017.1
20260905050017 64 5 2.0 3.0 0.00 0.02 0.00 85 1017.1
20260905044513 65 5 2.0 3.0 0.00 0.02 0.00 84 1017.3
20260905043009 66 5 2.0 3.0 0.00 0.02 0.00 82 1017.3
20260905041506 67 5 0.0 2.0 0.00 0.02 0.00 79 1017.1
20260905040004 68 5 0.0 1.0 0.00 0.02 0.02 78 1017.2
20260905034506 69 5 0.0 2.0 0.00 0.02 0.02 77 1017.0
20260905033002 69 5 1.0 2.0 0.00 0.02 0.02 77 1017.0
20260905031614 70 5 0.0 2.0 0.00 0.02 0.02 75 1017.0
20260905030101 70 5 1.0 2.0 0.00 0.02 0.02 75 1016.9
20260905030003 71 5 1.0 2.0 0.00 0.02 0.02 74 1017.0
20260905024600 71 5 0.0 2.0 0.00 0.02 0.02 72 1016.8
20260905023100 71 5 0.0 3.0 0.00 0.02 0.02 72 1016.8
20260905021600 71 5 0.0 3.0 0.00 0.02 0.02 72 1017.0
20260905014558 72 5 1.0 4.0 0.00 0.02 0.02 72 1017.1
20260905013058 72 340 1.0 5.0 0.00 0.02 0.02 71 1017.3
20260905011559 73 339 0.0 5.0 0.00 0.02 0.02 71 1017.1
20260905010107 73 345 2.0 4.0 0.00 0.02 0.02 70 1016.9
20260905004557 73 36 1.0 4.0 0.00 0.02 0.02 69 1016.9
20260905003058 74 40 2.0 5.0 0.00 0.02 0.02 68 1016.7
20260905001557 74 17 1.0 4.0 0.00 0.02 0.02 68 1016.7
20260905000104 75 17 2.0 5.0 0.00 0.02 0.02 67 1016.5
20260904234556 75 336 2.0 5.0 0.00 0.02 0.02 66 1016.5
20260904233054 76 9 0.0 4.0 0.00 0.02 0.02 65 1016.4
20260904231554 76 355 1.0 5.0 0.00 0.02 0.02 64 1016.5
20260904230107 77 335 1.0 5.0 0.00 0.02 0.02 62 1016.2
20260904224552 78 335 2.0 5.0 0.00 0.02 0.02 60 1016.2
20260904223059 78 317 1.0 6.0 0.00 0.02 0.02 59 1016.3
20260904221552 78 315 4.0 9.0 0.00 0.02 0.02 57 1016.2
20260904220107 78 308 3.0 11.0 0.00 0.02 0.02 57 1016.1
20260904214550 79 298 2.0 8.0 0.00 0.02 0.02 57 1016.0
20260904213050 79 277 1.0 5.0 0.00 0.02 0.02 58 1016.1
20260904211549 79 296 1.0 7.0 0.00 0.02 0.02 58 1016.1
20260904210050 78 294 2.0 8.0 0.00 0.02 0.02 58 1016.4
20260904204551 78 327 3.0 8.0 0.00 0.03 0.02 58 1016.3
20260904203048 79 17 4.0 10.0 0.00 0.03 0.02 57 1016.5
20260904201554 79 310 3.0 10.0 0.00 0.03 0.02 56 1016.5
20260904200055 79 64 2.0 10.0 0.00 0.03 0.02 57 1016.8
20260904194549 78 303 4.0 11.0 0.00 0.03 0.02 56 1016.9
20260904193046 79 318 6.0 11.0 0.00 0.03 0.02 56 1017.2
20260904191546 79 320 4.0 10.0 0.01 0.03 0.02 56 1017.2
20260904190045 79 36 3.0 9.0 0.01 0.03 0.02 55 1017.3
20260904184605 80 304 1.0 6.0 0.01 0.03 0.02 54 1017.3
20260904183045 81 327 0.0 4.0 0.01 0.03 0.02 54 1017.4
20260904181542 80 5 1.0 6.0 0.00 0.02 0.01 55 1017.6
20260904180041 79 309 3.0 11.0 0.00 0.02 0.01 55 1017.7
20260904174609 79 316 9.0 15.0 0.00 0.02 0.01 53 1018.0
20260904173042 79 329 8.0 17.0 0.00 0.02 0.01 54 1017.8
20260904171535 78 290 5.0 14.0 0.00 0.02 0.01 58 1017.9
20260904170044 78 326 6.0 13.0 0.00 0.02 0.01 59 1018.2
20260904164529 77 334 8.0 13.0 0.00 0.02 0.01 60 1018.1
20260904163039 77 261 3.0 8.0 0.00 0.02 0.01 65 1018.2
20260904161529 75 298 4.0 10.0 0.00 0.02 0.01 67 1018.2
20260904160027 75 326 3.0 10.0 0.00 0.02 0.01 67 1018.3
20260904154525 75 327 4.0 11.0 0.00 0.02 0.01 66 1018.3
20260904153026 76 350 4.0 15.0 0.00 0.02 0.01 68 1018.3
20260904151522 75 330 2.0 10.0 0.00 0.02 0.01 69 1018.2
20260904150029 74 360 1.0 8.0 0.00 0.02 0.01 72 1018.2
20260904144518 73 283 5.0 9.0 0.00 0.02 0.01 70 1018.4
20260904143016 73 320 5.0 10.0 0.00 0.02 0.01 71 1018.2
20260904141515 72 303 4.0 9.0 0.00 0.02 0.01 73 1018.5
20260904140014 72 316 2.0 9.0 0.00 0.02 0.01 74 1018.5
20260904134512 71 292 5.0 11.0 0.00 0.02 0.01 74 1018.4
20260904133013 71 316 3.0 11.0 0.00 0.02 0.01 75 1018.1
20260904131510 70 32 2.0 6.0 0.00 0.02 0.01 78 1018.0
20260904130015 69 304 3.0 9.0 0.00 0.02 0.01 80 1018.2
20260904124509 69 235 0.0 6.0 0.00 0.02 0.01 81 1018.2
20260904123008 69 222 2.0 5.0 0.00 0.02 0.01 82 1018.3
20260904121506 68 240 1.0 3.0 0.00 0.02 0.01 82 1018.1
20260904120009 68 220 2.0 4.0 0.00 0.02 0.01 83 1018.1
20260904114506 68 268 2.0 4.0 0.00 0.02 0.01 86 1018.0
20260904113002 68 269 0.0 3.0 0.00 0.02 0.01 88 1018.0
20260904111505 68 281 2.0 7.0 0.00 0.02 0.01 89 1018.0